TimeEDT,TemperatureF,Dew PointF,Humidity,Sea Level PressureIn,VisibilityMPH,Wind Direction,Wind SpeedMPH,Gust SpeedMPH,PrecipitationIn,Events,Conditions,WindDirDegrees,DateUTC
12:56 AM,80.1,75.0,85,29.94,10.0,Calm,Calm,-,N/A,,Overcast,0,2013-07-28 04:56:00
1:56 AM,79.0,73.9,84,29.94,10.0,WSW,3.5,-,N/A,,Partly Cloudy,240,2013-07-28 05:56:00
2:56 AM,77.0,73.9,90,29.94,10.0,WSW,3.5,-,N/A,,Partly Cloudy,240,2013-07-28 06:56:00
3:56 AM,78.1,73.9,87,29.93,10.0,WSW,4.6,-,N/A,,Partly Cloudy,240,2013-07-28 07:56:00
4:56 AM,78.1,73.9,87,29.94,10.0,Calm,Calm,-,N/A,,Clear,0,2013-07-28 08:56:00
5:56 AM,77.0,73.0,88,29.95,9.0,West,5.8,-,N/A,,Clear,260,2013-07-28 09:56:00
6:56 AM,77.0,73.0,88,29.96,7.0,Calm,Calm,-,N/A,,Clear,0,2013-07-28 10:56:00
7:56 AM,77.0,73.0,88,29.98,8.0,West,3.5,-,N/A,,Clear,270,2013-07-28 11:56:00
8:56 AM,78.1,72.0,81,30.00,9.0,West,3.5,-,N/A,,Clear,280,2013-07-28 12:56:00
9:56 AM,78.1,72.0,81,30.00,10.0,Calm,Calm,-,N/A,,Partly Cloudy,0,2013-07-28 13:56:00
10:56 AM,80.1,71.1,74,30.00,10.0,NNW,4.6,-,N/A,,Clear,330,2013-07-28 14:56:00
11:56 AM,82.0,69.1,65,30.00,10.0,Calm,Calm,-,N/A,,Clear,0,2013-07-28 15:56:00
12:56 PM,82.0,71.1,69,30.00,10.0,Calm,Calm,-,N/A,,Clear,0,2013-07-28 16:56:00
1:56 PM,84.9,71.1,63,30.00,10.0,SE,3.5,-,N/A,,Clear,130,2013-07-28 17:56:00
2:56 PM,84.9,70.0,61,29.99,10.0,Calm,Calm,-,N/A,,Clear,0,2013-07-28 18:56:00
3:56 PM,88.0,71.1,57,29.98,10.0,Calm,Calm,-,N/A,,Mostly Cloudy,0,2013-07-28 19:56:00
4:56 PM,88.0,68.0,51,29.97,10.0,Calm,Calm,-,N/A,,Mostly Cloudy,0,2013-07-28 20:56:00
5:56 PM,87.1,71.1,59,29.98,10.0,SSE,3.5,-,N/A,,Mostly Cloudy,150,2013-07-28 21:56:00
6:56 PM,86.0,73.0,65,29.99,10.0,South,4.6,-,N/A,,Clear,170,2013-07-28 22:56:00
7:56 PM,82.9,73.9,74,30.02,9.0,South,5.8,-,N/A,,Clear,180,2013-07-28 23:56:00
8:56 PM,82.0,75.0,79,30.03,10.0,SSW,4.6,-,N/A,,Scattered Clouds,200,2013-07-29 00:56:00
9:56 PM,81.0,75.0,82,30.03,8.0,South,3.5,-,N/A,,Partly Cloudy,190,2013-07-29 01:56:00
10:56 PM,80.1,75.0,85,30.03,8.0,South,4.6,-,N/A,,Clear,190,2013-07-29 02:56:00
11:56 PM,80.1,75.9,87,30.03,7.0,SSW,4.6,-,N/A,,Clear,210,2013-07-29 03:56:00